Location: Prairie View Elementary School
(39.8322°N, 99.5698°W)
Time: 02:53:12
(UTC+00:00)

ATLAS 5 CENTAUR R/B - Pass Details

Date: 08 December 2019
Orbit: 550 x 1109 km, 63.4° (Epoch: 17 January)

Event Time Altitude Azimuth Distance (km) Brightness Sun altitude
Exits shadow 11:47:44 11° 358° (N) 2,028 4.1 -22.2°
Drops below altitude 10° 11:48:01 10° 1° (N) 2,097 4.2 -22.1°
Sets 11:51:25 0° 23° (NNE) 3,134 5.3 -21.5°
